Powrót do katalogu

STARLINK-31081

AktywnyŁącznośćVLEO
NORAD 58632·PAYLOAD·🇺🇸 United States

Wystrzelony Dec 23, 2023 z Cape Canaveral Space Force Station

Loading…

Następne Przeloty (najbliższe 24 godziny)

TLE

ŚwieżeSource: CelesTrak SupGP

Epoka: Sep 15, 2026, 02:42 UTC

1 58632C 23203Q   26258.11298611 -.00009675  00000+0 -35039-3 0  2585
2 58632  42.9994  80.8020 0001518 269.5535 347.5486 15.27586128    14

Śledź STARLINK-31081 w czasie rzeczywistym z AllMySat

Download on the App Store